[[{"header":{"parameterUnit":"m.s-1","parameterCategory":2,"la1":30.2991,"la2":30.254,"lo1":-89.0895,"lo2":-89.0444,"dy":0.0017,"dx":0.0017,"nx":28,"ny":28,"refTime":"2023-08-15T09:00:00:Z","depth":"0","parameterNumber":2,"parameterNumberName":"U-component_of_CURRENTS"},"data":[0,0,0,0,0,0,0,0,0,0,0,0,0,0,0,0,0,0,0,0,0,0,0,0,0,0,0,0,0,0,0,0,0,0,0,0,0,0,0,0,0,0,0,0,0,0,0,0,0,0,0,0,0,0,0,0,0,0,0.2884,0.2885,0,0.3036,0.3038,0.304,0.3084,0.3083,0.3081,0.308,0.3149,0.3152,0.3155,0,0,0,0,0,0,0,0,0,0,0,0,0,0.2773,0.2775,0.2884,0.2885,0.2886,0.3035,0.3038,0.3041,0.3085,0.3083,0.3081,0.3079,0.3148,0.3152,0.3155,0,0,0,0,0,0,0,0,0,0,0,0,0,0.287,0.2775,0.2884,0.2921,0.2925,0.3035,0.3038,0.3042,0.3085,0.3083,0.308,0.3078,0.3147,0.3151,0.3156,0.3231,0,0,0.3171,0.3173,0,0,0,0,0,0,0,0,0.2864,0.2874,0.2914,0.2918,0.2923,0.3032,0.3024,0.3098,0.3086,0.3032,0.308,0.3077,0.3099,0.3108,0.3153,0.3234,0.3237,0.3171,0.3174,0.3176,0.3178,0,0,0,0,0,0,0,0.2857,0.2869,0.2952,0.2915,0.2921,0.2977,0.2988,0.304,0.308,0.3037,0.3038,0.3044,0.3102,0.3148,0.3154,0.3238,0.3171,0.3175,0.3178,0.318,0.3308,0.3308,0,0,0,0,0,0,0.2819,0.2862,0.2947,0.2955,0.2879,0.298,0.2993,0.3006,0.3082,0.309,0.3046,0.3045,0.3141,0.3149,0.3157,0.3275,0.3176,0.3181,0.3184,0.3307,0.3308,0.3308,0,0,0,0,0,0,0.2816,0.2825,0.294,0.2906,0.2923,0.2982,0.2998,0.301,0.3049,0.3088,0.3096,0.3071,0.314,0.315,0.3214,0.3276,0.3183,0.3187,0.3307,0.3308,0.3308,0.3494,0,0,0,0,0,0,0.2813,0.2824,0.2843,0.2903,0.2923,0.3066,0.3,0.3014,0.3053,0.3054,0.3113,0.3117,0.3139,0.3207,0.3219,0.3281,0.3191,0.3306,0.3307,0.3308,0.3487,0.3501,0.3512,0,0,0,0,0,0.2808,0.29,0.2843,0.2854,0.294,0.3071,0.3092,0.3128,0.3056,0.314,0.3129,0.3115,0.3218,0.3214,0.3227,0.3292,0.3306,0.3307,0.3308,0.3481,0.3498,0.3512,0,0,0,0,0,0,0.2903,0.2913,0.2853,0.2946,0.3002,0.3076,0.3161,0.3128,0.3188,0.3159,0.3155,0.3166,0.3242,0.3222,0.3215,0.3316,0.3247,0.3251,0.3373,0.3389,0.3402,0.3454,0.3195,0,0,0,0,0,0.2909,0.2978,0.2974,0.3068,0.3077,0.3091,0.314,0.3142,0.3185,0.3209,0.3229,0.3226,0.3262,0.3287,0.3326,0.3401,0.3425,0.343,0.3443,0.3455,0.3498,0.3625,0.3657,0.3312,0.3312,0.3312,0,0,0.2995,0.2994,0.3046,0.3091,0.3124,0.3203,0.3123,0.3212,0.3265,0.3205,0.3299,0.3291,0.3288,0.3381,0.3408,0.3373,0.355,0.3456,0.3468,0.3505,0.363,0.3665,0.3696,0.3313,0.3313,0.3313,0,0,0.3213,0.3164,0.3279,0.3309,0.333,0.3322,0.333,0.3366,0.337,0.344,0.3391,0.3424,0.3476,0.3512,0.3522,0.3618,0.3619,0.359,0.3714,0.3838,0.387,0.3898,0.3931,0.3961,0.3594,0.3594,0.3594,0,0.3328,0.3369,0.3352,0.3442,0.3443,0.3364,0.344,0.348,0.3532,0.3517,0.3489,0.3545,0.3554,0.3646,0.3686,0.3662,0.3697,0.3671,0.3866,0.3894,0.3921,0.3947,0.3979,0.3603,0.3602,0.3601,0.36,0,0.3574,0.3593,0.3672,0.3703,0.3747,0.3798,0.3773,0.3793,0.3719,0.3718,0.3767,0.3794,0.3815,0.3819,0.3802,0.396,0.3909,0.3881,0.3851,0.3969,0.3985,0.4015,0.3616,0.3613,0.361,0.3608,0,0,0.3823,0.3834,0.3842,0.3802,0.382,0.3856,0.3934,0.3929,0.3918,0.3974,0.3997,0.4086,0.4045,0.4054,0.4027,0.4145,0.4351,0.4109,0.4111,0.4183,0.4583,0.4429,0.4444,0.4379,0.4386,0.4391,0.4506,0,0.3974,0.4079,0.4068,0.4134,0.4125,0.4056,0.4119,0.4119,0.409,0.4118,0.412,0.4155,0.4148,0.414,0.428,0.4309,0.4444,0.4319,0.4421,0.4422,0.431,0.448,0.4245,0.432,0.4534,0.4539,0.4543,0,0.412,0.4138,0.4203,0.4142,0.414,0.4205,0.4135,0.4193,0.4225,0.4205,0.4268,0.4259,0.4396,0.4374,0.4598,0.4519,0.4599,0.4643,0.4648,0.4475,0.4327,0.4239,0.4365,0.4174,0.4588,0.4584,0.4581,0,0.4091,0.4172,0.416,0.4164,0.4175,0.4178,0.418,0.4206,0.4193,0.4265,0.4256,0.4411,0.4433,0.4626,0.4689,0.4679,0.4915,0.4889,0.4835,0.4819,0.4623,0.4579,0.4619,0.5131,0.513,0.513,0.513,0,0.4111,0.41,0.4137,0.4126,0.411,0.415,0.414,0.416,0.4207,0.4196,0.4297,0.4319,0.4516,0.4623,0.4749,0.4852,0.4966,0.4913,0.4882,0.4665,0.4626,0.4448,0.4374,0.5134,0.5133,0.5133,0.5132,0,0.4038,0.406,0.4047,0.4077,0.4079,0.4067,0.4079,0.4073,0.4134,0.4137,0.4157,0.4273,0.4409,0.4559,0.4802,0.4854,0.4842,0.5013,0.4689,0.4621,0.4386,0.4329,0.4276,0.4172,0.5009,0.5007,0.5005,0,0.3988,0.3979,0.3995,0.3973,0.3981,0.3974,0.3956,0.4014,0.4013,0.4081,0.4075,0.4201,0.4248,0.4497,0.463,0.4809,0.4718,0.4688,0.4662,0.4391,0.4308,0.4181,0.409,0.4451,0.4445,0.444,0.4435,0,0.389,0.3903,0.3889,0.3865,0.3842,0.3805,0.3803,0.3786,0.3841,0.386,0.3885,0.3941,0.4133,0.4187,0.4382,0.4484,0.4401,0.4584,0.4433,0.4007,0.375,0.3622,0.4291,0.4388,0.4393,0.4397,0.4399,0.4401,0.3792,0.3765,0.3748,0.3714,0.3681,0.3607,0.3528,0.355,0.3516,0.3507,0.3669,0.3708,0.3829,0.4064,0.41,0.3969,0.4091,0.3907,0.3898,0.3823,0.3619,0.4141,0.4118,0.4121,0.4123,0.4125,0.4127,0,0.3627,0.3615,0.3589,0.3504,0.3408,0.3452,0.3382,0.3294,0.3205,0.331,0.3343,0.3413,0.3411,0.349,0.3424,0.3306,0.3231,0.3216,0.3,0.2983,0.3555,0.342,0.3084,0.3084,0.3084,0.3085,0.3085,0.3085,0.3525,0.3444,0.3446,0.3243,0.3184,0.3004,0.2932,0.2864,0.2897,0.2851,0.2882,0.2997,0.3052,0.2959,0.2743,0.2698,0.2525,0.2395,0.2468,0.2838,0.2901,0.2961,0.2817,0.2361,0.2361,0.1759,0.1754,0.175]},{"header":{"parameterUnit":"m.s-1","parameterCategory":2,"la1":30.2991,"la2":30.254,"lo1":-89.0895,"lo2":-89.0444,"dy":0.0017,"dx":0.0017,"nx":28,"ny":28,"refTime":"2023-08-15T09:00:00:Z","depth":"0","parameterNumber":3,"parameterNumberName":"V-component_of_CURRENTS"},"data":[0,0,0,0,0,0,0,0,0,0,0,0,0,0,0,0,0,0,0,0,0,0,0,0,0,0,0,0,0,0,0,0,0,0,0,0,0,0,0,0,0,0,0,0,0,0,0,0,0,0,0,0,0,0,0,0,0,0,0.0415,0.0415,0,0.038,0.0379,0.0379,0.028,0.0278,0.0276,0.0275,0.0231,0.0232,0.0232,0,0,0,0,0,0,0,0,0,0,0,0,0,0.0413,0.0413,0.0415,0.0415,0.0415,0.038,0.0379,0.0379,0.028,0.0278,0.0276,0.0274,0.0231,0.0232,0.0232,0,0,0,0,0,0,0,0,0,0,0,0,0,0.0396,0.0413,0.0415,0.0365,0.036,0.0381,0.0379,0.0378,0.0281,0.0278,0.0275,0.0273,0.0231,0.0232,0.0232,0.0289,0,0,0.0235,0.0235,0,0,0,0,0,0,0,0,0.0397,0.0395,0.0372,0.0368,0.0363,0.0336,0.0363,0.035,0.0281,0.0306,0.0275,0.0272,0.027,0.0268,0.0261,0.0287,0.0285,0.0235,0.0235,0.0235,0.0236,0,0,0,0,0,0,0,0.0398,0.0396,0.0396,0.0372,0.0367,0.0351,0.0344,0.036,0.03,0.0304,0.0298,0.0302,0.0267,0.026,0.0259,0.0285,0.0235,0.0235,0.0236,0.0236,0.0349,0.0351,0,0,0,0,0,0,0.0413,0.0398,0.0398,0.0396,0.0379,0.0353,0.0346,0.0343,0.0299,0.0292,0.0304,0.0297,0.026,0.0258,0.0257,0.037,0.0235,0.0236,0.0236,0.0346,0.0349,0.0352,0,0,0,0,0,0,0.0413,0.0414,0.0399,0.04,0.0397,0.0356,0.0354,0.0344,0.0329,0.0301,0.0291,0.0298,0.0258,0.0256,0.0285,0.0365,0.0236,0.0237,0.0343,0.0347,0.0351,0.0565,0,0,0,0,0,0,0.0413,0.0414,0.0436,0.0401,0.0398,0.0439,0.0357,0.0346,0.0339,0.0329,0.0294,0.0287,0.0256,0.0285,0.0286,0.0364,0.0237,0.034,0.0345,0.0349,0.0554,0.0575,0.0593,0,0,0,0,0,0.0413,0.0479,0.0437,0.0438,0.0423,0.0443,0.0441,0.0399,0.0341,0.0367,0.0333,0.0287,0.0315,0.0288,0.0289,0.0369,0.0337,0.0343,0.0349,0.0546,0.0571,0.0593,0,0,0,0,0,0,0.0508,0.0474,0.0427,0.0481,0.0465,0.0428,0.0462,0.041,0.04,0.0383,0.0329,0.0323,0.0379,0.0339,0.031,0.041,0.0317,0.0323,0.0466,0.049,0.0509,0.0564,0.0238,0,0,0,0,0,0.0534,0.0566,0.0518,0.0567,0.0557,0.0499,0.0504,0.0464,0.0445,0.0434,0.0413,0.0391,0.0408,0.0417,0.042,0.0484,0.0465,0.053,0.0549,0.0566,0.061,0.0664,0.0694,0.0371,0.0371,0.0371,0,0,0.0587,0.0576,0.0593,0.0588,0.0565,0.0588,0.0495,0.0511,0.0539,0.0438,0.0487,0.0464,0.0437,0.0508,0.0529,0.0485,0.0641,0.0574,0.0589,0.0623,0.0673,0.0705,0.0733,0.0375,0.0374,0.0374,0,0,0.0719,0.0688,0.0747,0.0736,0.0714,0.0678,0.0682,0.0643,0.0633,0.0674,0.0611,0.0646,0.0652,0.0671,0.0674,0.0804,0.0741,0.0785,0.0942,0.0994,0.1022,0.1047,0.104,0.1062,0.0798,0.0799,0.0799,0,0.0785,0.0819,0.0775,0.0818,0.0819,0.072,0.0764,0.0763,0.0745,0.0768,0.0718,0.0777,0.0747,0.0855,0.0895,0.0859,0.0847,0.0859,0.1025,0.1049,0.107,0.1057,0.1079,0.081,0.0808,0.0807,0.0806,0,0.0928,0.095,0.0989,0.099,0.1006,0.1025,0.0993,0.1007,0.097,0.0971,0.1061,0.1044,0.108,0.1079,0.1031,0.1175,0.1102,0.1044,0.0976,0.1117,0.1091,0.1111,0.0825,0.0821,0.0818,0.0815,0,0,0.1068,0.108,0.1088,0.1089,0.1074,0.1094,0.1157,0.1185,0.124,0.1254,0.136,0.1401,0.1384,0.1388,0.1344,0.1399,0.1523,0.13,0.1298,0.1312,0.1606,0.1479,0.1485,0.1496,0.1501,0.1505,0.1519,0,0.1169,0.1245,0.1247,0.1319,0.1327,0.1284,0.1362,0.139,0.1407,0.1496,0.1513,0.1592,0.1504,0.1534,0.1588,0.154,0.1587,0.1522,0.1452,0.1449,0.1337,0.151,0.1433,0.1434,0.1537,0.154,0.1542,0,0.1273,0.1303,0.1371,0.1418,0.143,0.1486,0.1549,0.1614,0.1712,0.1744,0.1835,0.1828,0.1929,0.1821,0.1866,0.1825,0.175,0.1704,0.1701,0.1532,0.1361,0.1312,0.1463,0.1222,0.1571,0.1568,0.1566,0,0.13,0.1384,0.1424,0.1433,0.1491,0.1547,0.1598,0.1689,0.1779,0.1909,0.199,0.2081,0.2133,0.2107,0.199,0.1943,0.2011,0.1916,0.1735,0.172,0.1618,0.1587,0.1552,0.197,0.197,0.197,0.197,0,0.1351,0.139,0.144,0.1452,0.1563,0.1601,0.1748,0.1808,0.1961,0.2107,0.2126,0.2252,0.2212,0.2218,0.2097,0.1983,0.2088,0.1817,0.1753,0.1681,0.1657,0.1406,0.1323,0.197,0.197,0.197,0.197,0,0.135,0.1369,0.1426,0.1511,0.1559,0.1638,0.1827,0.1949,0.2063,0.2256,0.2309,0.2415,0.2429,0.2335,0.2284,0.2104,0.1884,0.192,0.1807,0.1731,0.131,0.1241,0.1225,0.1162,0.1749,0.1747,0.1745,0,0.1342,0.1361,0.1457,0.1519,0.1564,0.1701,0.1821,0.1982,0.213,0.235,0.2463,0.2535,0.2611,0.2473,0.2214,0.2003,0.1833,0.1714,0.1621,0.1331,0.1209,0.1181,0.1128,0.1554,0.1551,0.1548,0.1546,0,0.1351,0.1377,0.1435,0.1553,0.1675,0.1831,0.2016,0.2144,0.2348,0.2499,0.2697,0.2774,0.2651,0.2443,0.2116,0.1926,0.1559,0.1643,0.1415,0.1143,0.105,0.0938,0.1446,0.152,0.1523,0.1525,0.1526,0.1527,0.1368,0.1421,0.1507,0.1626,0.1769,0.1959,0.2094,0.229,0.2519,0.2749,0.2833,0.2947,0.2588,0.2172,0.1908,0.1266,0.1392,0.1028,0.0994,0.1009,0.0897,0.1317,0.1262,0.1263,0.1264,0.1265,0.1266,0,0.1399,0.148,0.159,0.1751,0.1905,0.1981,0.2234,0.2365,0.2594,0.2802,0.2959,0.2817,0.233,0.1851,0.104,0.0661,0.0595,0.0445,0.0396,0.0395,0.0813,0.0743,0.0487,0.0487,0.0487,0.0487,0.0487,0.0488,0.1432,0.1541,0.1606,0.1852,0.1967,0.2187,0.232,0.2489,0.2662,0.2832,0.2891,0.2955,0.247,0.1107,0.0218,0.0065,-0.011,-0.0156,-0.0201,0.0026,0.0077,0.0126,0.0037,-0.0363,-0.0364,-0.0615,-0.0618,-0.062]}],[{"header":{"parameterUnit":"m.s-1","parameterCategory":2,"la1":30.2991,"la2":30.254,"lo1":-89.0895,"lo2":-89.0444,"dy":0.0017,"dx":0.0017,"nx":28,"ny":28,"refTime":"2023-08-15T09:00:00:Z","depth":"2","parameterNumber":2,"parameterNumberName":"U-component_of_CURRENTS"},"data":[0,0,0,0,0,0,0,0,0,0,0,0,0,0,0,0,0,0,0,0,0,0,0,0,0,0,0,0,0,0,0,0,0,0,0,0,0,0,0,0,0,0,0,0,0,0,0,0,0,0,0,0,0,0,0,0,0,0,0.218,0.2181,0,0.2162,0.2161,0.2159,0.2149,0.215,0.2151,0.2152,0.2385,0.239,0.2395,0,0,0,0,0,0,0,0,0,0,0,0,0,0.2095,0.2097,0.218,0.2181,0.2182,0.2162,0.2161,0.2159,0.2149,0.215,0.2151,0.2153,0.2384,0.239,0.2396,0,0,0,0,0,0,0,0,0,0,0,0,0,0.2098,0.2097,0.218,0.2184,0.2185,0.2162,0.2161,0.2159,0.2148,0.215,0.2152,0.2153,0.2382,0.2389,0.2397,0.2411,0,0,0.242,0.2424,0,0,0,0,0,0,0,0,0.2098,0.21,0.2182,0.2184,0.2185,0.2171,0.2217,0.226,0.2148,0.2149,0.2152,0.2154,0.2344,0.2355,0.2326,0.2422,0.2432,0.2421,0.2426,0.2429,0.2431,0,0,0,0,0,0,0,0.2098,0.21,0.216,0.2183,0.2185,0.215,0.2151,0.2222,0.2232,0.2149,0.2151,0.2169,0.2345,0.2318,0.2332,0.2435,0.2421,0.2428,0.2432,0.2435,0.2831,0.2837,0,0,0,0,0,0,0.213,0.2101,0.2161,0.2161,0.2159,0.2151,0.2152,0.2163,0.2226,0.2239,0.2167,0.2169,0.2304,0.2323,0.2341,0.2573,0.2429,0.2436,0.2441,0.2826,0.2833,0.2839,0,0,0,0,0,0,0.2128,0.2135,0.2162,0.214,0.2143,0.2153,0.2163,0.2162,0.2158,0.224,0.2255,0.217,0.2306,0.233,0.249,0.2575,0.244,0.2447,0.2819,0.2828,0.2836,0.2904,0,0,0,0,0,0,0.2125,0.2134,0.2143,0.2143,0.2146,0.2226,0.2163,0.2161,0.2172,0.2173,0.2248,0.2268,0.2309,0.2479,0.2498,0.2583,0.2453,0.2811,0.2823,0.2833,0.2895,0.2914,0.2931,0,0,0,0,0,0.2122,0.215,0.2143,0.2151,0.2161,0.2231,0.223,0.2231,0.2171,0.2218,0.2276,0.2267,0.2563,0.249,0.2511,0.26,0.2806,0.282,0.2832,0.2886,0.291,0.2931,0,0,0,0,0,0,0.2127,0.2153,0.2145,0.218,0.2236,0.2236,0.2275,0.2235,0.2294,0.2314,0.2331,0.2362,0.2547,0.2569,0.2486,0.2756,0.2687,0.2705,0.2721,0.2745,0.2762,0.2747,0.2459,0,0,0,0,0,0.213,0.2176,0.2194,0.2249,0.2269,0.2257,0.2272,0.2288,0.234,0.2359,0.2424,0.2509,0.2607,0.2671,0.2786,0.2907,0.2871,0.2989,0.3007,0.3021,0.3031,0.301,0.3023,0.2883,0.2882,0.2882,0,0,0.2164,0.2183,0.2213,0.2257,0.2285,0.2342,0.2272,0.235,0.2412,0.2388,0.2525,0.2593,0.2664,0.2832,0.2913,0.2861,0.3057,0.3038,0.3049,0.3051,0.3024,0.3036,0.3047,0.2892,0.289,0.2889,0,0,0.2231,0.2262,0.2292,0.2347,0.2416,0.2442,0.2467,0.2511,0.2548,0.2691,0.2687,0.2797,0.2963,0.3012,0.3049,0.3233,0.3168,0.3287,0.3344,0.3323,0.3331,0.3338,0.3336,0.3341,0.3275,0.3275,0.3275,0,0.2262,0.2284,0.2327,0.2371,0.2414,0.2486,0.2525,0.2604,0.2711,0.273,0.2792,0.2968,0.3047,0.3138,0.3234,0.3269,0.3243,0.3235,0.3336,0.3342,0.3347,0.3342,0.3348,0.328,0.328,0.3279,0.3279,0,0.2314,0.2357,0.2407,0.2483,0.2547,0.2638,0.2735,0.2828,0.2893,0.2938,0.3095,0.3209,0.3279,0.3348,0.3362,0.3442,0.3409,0.3362,0.3249,0.3363,0.3355,0.3359,0.3287,0.3285,0.3284,0.3283,0,0,0.232,0.2408,0.2434,0.2455,0.2602,0.2662,0.2805,0.2896,0.2936,0.3135,0.3169,0.339,0.3407,0.3454,0.3475,0.3494,0.3545,0.3459,0.3455,0.3404,0.3505,0.3365,0.3355,0.3486,0.3487,0.3487,0.3488,0,0.234,0.241,0.2451,0.2572,0.2608,0.2712,0.2821,0.294,0.3057,0.3161,0.3279,0.339,0.3458,0.349,0.3531,0.3541,0.3557,0.3551,0.345,0.3448,0.3262,0.3355,0.3113,0.3081,0.3491,0.3491,0.3492,0,0.2349,0.2386,0.2454,0.2547,0.2569,0.2666,0.2786,0.2897,0.3057,0.3138,0.3256,0.335,0.3468,0.3498,0.357,0.3554,0.3555,0.3563,0.356,0.3401,0.3313,0.3037,0.3072,0.3498,0.3497,0.3497,0.3496,0,0.2297,0.2397,0.2439,0.2488,0.2611,0.2644,0.2733,0.2877,0.2961,0.3116,0.3194,0.3322,0.3416,0.3448,0.355,0.3536,0.3603,0.355,0.3426,0.3416,0.3179,0.3145,0.3573,0.3573,0.3573,0.3573,0.3573,0,0.229,0.2338,0.2423,0.2453,0.2514,0.2606,0.2693,0.2786,0.2928,0.3033,0.3179,0.3283,0.341,0.3489,0.353,0.3513,0.3576,0.3455,0.3404,0.3205,0.3175,0.3505,0.3497,0.3573,0.3573,0.3573,0.3573,0,0.2252,0.2316,0.2363,0.2454,0.2492,0.2547,0.2692,0.275,0.2887,0.3022,0.308,0.3266,0.3344,0.3447,0.3501,0.3469,0.3463,0.3432,0.3213,0.3134,0.3293,0.329,0.3254,0.3249,0.3245,0.3241,0.3238,0,0.2234,0.2248,0.235,0.2383,0.2432,0.2524,0.2584,0.2732,0.2799,0.3016,0.3068,0.3203,0.3279,0.3318,0.3258,0.323,0.3378,0.2988,0.2907,0.3305,0.326,0.3264,0.3266,0.2646,0.2638,0.2632,0.2627,0,0.2163,0.2214,0.225,0.2321,0.239,0.2464,0.256,0.2613,0.2783,0.2892,0.3035,0.3105,0.3121,0.2977,0.2918,0.2875,0.2965,0.2853,0.3314,0.2755,0.2727,0.2685,0.2708,0.2572,0.2577,0.2581,0.2584,0.2587,0.2111,0.213,0.2184,0.2258,0.2327,0.2386,0.2422,0.2506,0.2606,0.2652,0.2816,0.2777,0.2788,0.2513,0.2461,0.2401,0.2577,0.2485,0.2505,0.2533,0.2452,0.2418,0.2191,0.2195,0.2197,0.22,0.2202,0,0.2036,0.2072,0.2114,0.2196,0.223,0.2312,0.2385,0.2375,0.2433,0.2386,0.2411,0.2159,0.2042,0.2086,0.189,0.1867,0.1866,0.1821,0.1833,0.1888,0.1936,0.1828,0.1401,0.1398,0.1396,0.1394,0,0,0.1992,0.2004,0.2038,0.2079,0.2141,0.2166,0.2195,0.2159,0.2114,0.1914,0.1785,0.1771,0.1948,0.1605,0.1591,0.1482,0.1666,0.1412,0.2051,0.2116,0.2162,0.2311,0.2204,0,0,0,0,0]},{"header":{"parameterUnit":"m.s-1","parameterCategory":2,"la1":30.2991,"la2":30.254,"lo1":-89.0895,"lo2":-89.0444,"dy":0.0017,"dx":0.0017,"nx":28,"ny":28,"refTime":"2023-08-15T09:00:00:Z","depth":"2","parameterNumber":3,"parameterNumberName":"V-component_of_CURRENTS"},"data":[0,0,0,0,0,0,0,0,0,0,0,0,0,0,0,0,0,0,0,0,0,0,0,0,0,0,0,0,0,0,0,0,0,0,0,0,0,0,0,0,0,0,0,0,0,0,0,0,0,0,0,0,0,0,0,0,0,0,-0.0046,-0.0047,0,-0.0145,-0.0147,-0.0148,-0.0188,-0.0187,-0.0187,-0.0186,-0.0393,-0.0398,-0.0404,0,0,0,0,0,0,0,0,0,0,0,0,0,-0.0008,-0.0008,-0.0046,-0.0047,-0.0048,-0.0145,-0.0147,-0.0148,-0.0188,-0.0187,-0.0187,-0.0186,-0.0391,-0.0398,-0.0405,0,0,0,0,0,0,0,0,0,0,0,0,0,-0.0061,-0.0008,-0.0046,-0.0076,-0.008,-0.0144,-0.0147,-0.0149,-0.0188,-0.0187,-0.0187,-0.0186,-0.0388,-0.0397,-0.0406,-0.048,0,0,-0.0434,-0.0438,0,0,0,0,0,0,0,0,-0.0057,-0.0062,-0.0071,-0.0074,-0.0078,-0.015,-0.0209,-0.0263,-0.0189,-0.0151,-0.0186,-0.0185,-0.032,-0.0334,-0.0359,-0.0489,-0.0498,-0.0434,-0.044,-0.0444,-0.0446,0,0,0,0,0,0,0,-0.0054,-0.0059,-0.0089,-0.0072,-0.0076,-0.0125,-0.0131,-0.022,-0.0244,-0.0154,-0.0157,-0.0162,-0.0323,-0.035,-0.0364,-0.0501,-0.0434,-0.0442,-0.0448,-0.0451,-0.0567,-0.0565,0,0,0,0,0,0,-0.0028,-0.0055,-0.0086,-0.0092,-0.0061,-0.0125,-0.0132,-0.0131,-0.0241,-0.0255,-0.0162,-0.0163,-0.0335,-0.0353,-0.0372,-0.036,-0.0444,-0.0452,-0.0457,-0.0569,-0.0566,-0.0564,0,0,0,0,0,0,-0.0027,-0.003,-0.0082,-0.0073,-0.0082,-0.0126,-0.0125,-0.0133,-0.0161,-0.0245,-0.0262,-0.018,-0.0335,-0.0359,-0.0425,-0.0372,-0.0456,-0.0465,-0.0572,-0.0568,-0.0565,-0.0405,0,0,0,0,0,0,-0.0026,-0.0029,-0.0025,-0.0071,-0.0082,-0.0128,-0.0126,-0.0136,-0.0164,-0.0166,-0.0267,-0.0284,-0.0336,-0.041,-0.0434,-0.0386,-0.0472,-0.0575,-0.057,-0.0566,-0.0413,-0.0396,-0.0382,0,0,0,0,0,-0.0024,-0.003,-0.0024,-0.0029,-0.0073,-0.0129,-0.0141,-0.0171,-0.0165,-0.0191,-0.0227,-0.0281,-0.0396,-0.0418,-0.0445,-0.0399,-0.0577,-0.0572,-0.0566,-0.042,-0.04,-0.0382,0,0,0,0,0,0,-0.0028,-0.0036,-0.003,-0.0042,-0.008,-0.0134,-0.0144,-0.0173,-0.0223,-0.0207,-0.0288,-0.0309,-0.032,-0.0398,-0.0419,-0.0412,-0.0483,-0.0483,-0.0362,-0.0344,-0.0328,-0.0406,-0.0479,0,0,0,0,0,-0.0019,-0.0018,-0.0046,-0.0059,-0.0057,-0.0099,-0.0123,-0.0144,-0.0189,-0.0209,-0.0277,-0.0317,-0.0322,-0.0366,-0.0398,-0.0449,-0.0553,-0.0423,-0.0407,-0.0394,-0.0472,-0.0534,-0.0532,-0.0546,-0.0546,-0.0546,0,0,-0.0024,-0.0029,-0.0029,-0.0058,-0.007,-0.0093,-0.0112,-0.0136,-0.0163,-0.0227,-0.0277,-0.0271,-0.0315,-0.0318,-0.0333,-0.0386,-0.0436,-0.0387,-0.0375,-0.0463,-0.0528,-0.0528,-0.0527,-0.0543,-0.0543,-0.0544,0,0,-0.0055,-0.0025,-0.004,-0.0057,-0.0073,-0.0086,-0.0092,-0.0138,-0.0154,-0.02,-0.0195,-0.018,-0.0262,-0.0257,-0.0264,-0.0205,-0.0328,-0.0186,-0.0209,-0.0263,-0.0264,-0.0267,-0.037,-0.0383,-0.0204,-0.0204,-0.0204,0,-0.0065,-0.0075,-0.0062,-0.0082,-0.0089,-0.0079,-0.0106,-0.0121,-0.0194,-0.0211,-0.0198,-0.0221,-0.0229,-0.0221,-0.0169,-0.0171,-0.0258,-0.0267,-0.0246,-0.0251,-0.0257,-0.0363,-0.038,-0.0196,-0.0197,-0.0198,-0.0198,0,-0.0122,-0.0112,-0.0112,-0.0115,-0.0132,-0.0139,-0.0143,-0.0163,-0.0153,-0.0173,-0.0163,-0.0156,-0.0183,-0.0126,-0.0137,-0.0146,-0.0211,-0.0192,-0.03,-0.0246,-0.036,-0.0381,-0.0184,-0.0187,-0.0189,-0.0191,0,0,-0.02,-0.0156,-0.0167,-0.0136,-0.0136,-0.0148,-0.0165,-0.0185,-0.0183,-0.0199,-0.0216,-0.0158,-0.0145,-0.0156,-0.0126,-0.0176,-0.0222,-0.0216,-0.0223,-0.0335,-0.0406,-0.023,-0.0237,-0.0204,-0.0207,-0.021,-0.0461,0,-0.025,-0.025,-0.0251,-0.0242,-0.0206,-0.02,-0.0221,-0.0232,-0.0217,-0.0225,-0.019,-0.0158,-0.0153,-0.011,-0.0163,-0.0192,-0.0276,-0.0161,-0.0436,-0.0446,-0.0305,-0.0252,-0.0228,-0.0431,-0.0482,-0.0486,-0.0488,0,-0.0314,-0.0291,-0.0286,-0.0229,-0.0225,-0.0248,-0.0235,-0.0253,-0.0253,-0.0239,-0.0232,-0.0193,-0.0219,-0.0193,-0.035,-0.0285,-0.0372,-0.0418,-0.0427,-0.036,-0.0307,-0.0498,-0.0468,-0.0524,-0.0521,-0.0519,-0.0516,0,-0.0317,-0.0308,-0.0284,-0.0272,-0.0237,-0.0262,-0.0262,-0.0268,-0.0244,-0.0235,-0.0191,-0.0248,-0.0213,-0.036,-0.0392,-0.0406,-0.0571,-0.0589,-0.0548,-0.054,-0.0629,-0.0619,-0.0756,-0.0755,-0.0755,-0.0754,-0.0753,0,-0.0323,-0.0312,-0.0279,-0.0257,-0.025,-0.0247,-0.0238,-0.0251,-0.023,-0.0162,-0.0184,-0.012,-0.0251,-0.0303,-0.0434,-0.0519,-0.0607,-0.0588,-0.0585,-0.056,-0.0542,-0.0718,-0.071,-0.0764,-0.0761,-0.076,-0.0758,0,-0.0315,-0.0292,-0.0253,-0.0234,-0.023,-0.0228,-0.0197,-0.0165,-0.0166,-0.008,-0.0054,-0.005,-0.0089,-0.0209,-0.0393,-0.05,-0.0629,-0.064,-0.0602,-0.0585,-0.06,-0.0581,-0.0727,-0.0723,-0.0719,-0.0716,-0.0714,0,-0.03,-0.0271,-0.0232,-0.0199,-0.0197,-0.0177,-0.0146,-0.0136,-0.0071,0.0002,0.0066,0.0077,0.0172,-0.0033,-0.0228,-0.0445,-0.0487,-0.0566,-0.0557,-0.0612,-0.0596,-0.0582,-0.0568,-0.0653,-0.065,-0.0648,-0.0646,0,-0.0265,-0.0262,-0.022,-0.0151,-0.0114,-0.0054,-0.0003,0.0065,0.012,0.0231,0.0379,0.0461,0.0318,0.0194,-0.0043,-0.021,-0.0525,-0.0517,-0.0622,-0.0577,-0.0536,-0.052,-0.0512,-0.0625,-0.0627,-0.0629,-0.063,-0.0631,-0.0246,-0.0212,-0.0142,-0.0085,-0.0023,0.008,0.0156,0.0283,0.0443,0.0633,0.0636,0.0753,0.0513,0.0279,0.0048,-0.0259,-0.031,-0.0462,-0.0475,-0.0489,-0.0347,-0.0292,-0.0317,-0.0318,-0.0318,-0.0318,-0.0318,0,-0.0184,-0.014,-0.007,0.0028,0.0126,0.0127,0.0275,0.0416,0.0671,0.0821,0.099,0.0831,0.0701,0.042,0.0006,-0.0223,-0.0334,-0.0299,-0.0412,-0.043,-0.0446,-0.0307,-0.0266,-0.0266,-0.0266,-0.0266,0,0,-0.014,-0.0048,-0.0008,0.0159,0.0221,0.0367,0.0462,0.071,0.0863,0.1085,0.1133,0.1139,0.0789,0.0514,0.019,-0.0025,-0.0179,-0.0079,-0.0103,-0.0216,-0.0229,-0.0527,-0.0328,0,0,0,0,0]}],[{"header":{"parameterUnit":"m.s-1","parameterCategory":2,"la1":30.2991,"la2":30.254,"lo1":-89.0895,"lo2":-89.0444,"dy":0.0017,"dx":0.0017,"nx":28,"ny":28,"refTime":"2023-08-15T09:00:00:Z","depth":"4","parameterNumber":2,"parameterNumberName":"U-component_of_CURRENTS"},"data":[0,0,0,0,0,0,0,0,0,0,0,0,0,0,0,0,0,0,0,0,0,0,0,0,0,0,0,0,0,0,0,0,0,0,0,0,0,0,0,0,0,0,0,0,0,0,0,0,0,0,0,0,0,0,0,0,0,0,0.1055,0.1056,0,0.1015,0.1014,0.1013,0.104,0.1042,0.1044,0.1046,0.0972,0.0968,0.0965,0,0,0,0,0,0,0,0,0,0,0,0,0,0.1036,0.1036,0.1055,0.1056,0.1056,0.1015,0.1014,0.1013,0.104,0.1042,0.1044,0.1046,0.0973,0.0969,0.0964,0,0,0,0,0,0,0,0,0,0,0,0,0,0.102,0.1036,0.1055,0.1068,0.107,0.1015,0.1014,0.1013,0.104,0.1042,0.1045,0.1047,0.0974,0.0969,0.0964,0.0877,0,0,0.0947,0.0945,0,0,0,0,0,0,0,0,0.1021,0.102,0.1067,0.1068,0.1069,0.1041,0.098,0.0968,0.1039,0.1045,0.1046,0.1049,0.0993,0.0986,0.0965,0.0873,0.087,0.0947,0.0943,0.0941,0.0939,0,0,0,0,0,0,0,0.1022,0.1021,0.1034,0.1066,0.1068,0.1036,0.1037,0.0977,0.1,0.1045,0.1048,0.1052,0.0993,0.097,0.0964,0.0869,0.0947,0.0942,0.0939,0.0936,0.0942,0.0945,0,0,0,0,0,0,0.1042,0.1022,0.1035,0.1033,0.1057,0.1035,0.1035,0.1042,0.1001,0.0999,0.105,0.1053,0.0978,0.097,0.0961,0.1011,0.0941,0.0936,0.0933,0.0938,0.0942,0.0946,0,0,0,0,0,0,0.1041,0.1043,0.1037,0.1031,0.1029,0.1034,0.104,0.104,0.1042,0.1006,0.1003,0.1056,0.098,0.0969,0.0939,0.1002,0.0933,0.0928,0.0934,0.094,0.0944,0.101,0,0,0,0,0,0,0.1041,0.1043,0.1054,0.1033,0.103,0.1006,0.1038,0.1038,0.1042,0.1047,0.1009,0.1004,0.0981,0.0947,0.0934,0.0994,0.0924,0.093,0.0937,0.0943,0.1003,0.1016,0.1028,0,0,0,0,0,0.104,0.103,0.1054,0.1056,0.1045,0.1006,0.0999,0.1008,0.104,0.1023,0.1023,0.1007,0.0982,0.0942,0.0926,0.0987,0.0927,0.0935,0.0942,0.0998,0.1014,0.1027,0,0,0,0,0,0,0.1028,0.1032,0.1058,0.1054,0.104,0.1013,0.1,0.1012,0.0995,0.1024,0.0992,0.0985,0.1007,0.0978,0.0937,0.102,0.0974,0.0979,0.1023,0.1037,0.1049,0.1062,0.092,0,0,0,0,0,0.1033,0.1026,0.1028,0.1022,0.1021,0.1017,0.1007,0.1024,0.1009,0.1007,0.0981,0.0993,0.1018,0.101,0.1007,0.0994,0.0978,0.1048,0.106,0.107,0.1078,0.1085,0.1097,0.0971,0.0971,0.0971,0,0,0.1028,0.1029,0.1027,0.1019,0.1013,0.0998,0.1016,0.1014,0.1022,0.0997,0.0988,0.1014,0.1027,0.1053,0.1064,0.1035,0.1104,0.108,0.1088,0.109,0.1094,0.1106,0.1116,0.0976,0.0975,0.0975,0,0,0.0989,0.1016,0.0994,0.0984,0.099,0.0994,0.1,0.0991,0.1013,0.1017,0.1041,0.1086,0.1079,0.1106,0.1126,0.1192,0.1172,0.1234,0.1286,0.1293,0.1302,0.131,0.1317,0.1325,0.1234,0.1234,0.1234,0,0.0984,0.0978,0.0978,0.0953,0.0962,0.0995,0.099,0.0996,0.0984,0.1014,0.1037,0.1111,0.1114,0.1172,0.1239,0.1216,0.1223,0.1219,0.1304,0.1312,0.1318,0.1323,0.1331,0.1238,0.1238,0.1237,0.1237,0,0.092,0.0935,0.0918,0.0916,0.0912,0.0917,0.0944,0.0967,0.1031,0.1054,0.1139,0.116,0.1216,0.1256,0.1276,0.1355,0.1347,0.1316,0.1253,0.1334,0.1336,0.1342,0.1244,0.1243,0.1241,0.124,0,0,0.0856,0.0879,0.0874,0.0901,0.0916,0.0911,0.0948,0.0995,0.105,0.1094,0.1172,0.1256,0.1304,0.1335,0.1367,0.1397,0.147,0.1403,0.1402,0.1387,0.1502,0.1412,0.141,0.1458,0.146,0.1461,0.1487,0,0.082,0.0804,0.0822,0.0834,0.0845,0.0908,0.0937,0.0992,0.1066,0.1136,0.1228,0.1311,0.1321,0.1401,0.1426,0.1473,0.1491,0.1467,0.1447,0.1447,0.1336,0.1415,0.1466,0.1491,0.1493,0.1494,0.1494,0,0.075,0.0762,0.0774,0.0856,0.0866,0.0886,0.099,0.1026,0.1134,0.1211,0.1304,0.1366,0.1461,0.1465,0.1522,0.1515,0.1526,0.1539,0.1538,0.1433,0.1369,0.1395,0.1506,0.1505,0.1504,0.1503,0.1502,0,0.0708,0.0739,0.0771,0.0781,0.0852,0.0907,0.0971,0.1059,0.1123,0.1274,0.1351,0.1435,0.1525,0.1541,0.1588,0.1575,0.1639,0.1595,0.1505,0.1498,0.1536,0.1527,0.1617,0.1617,0.1617,0.1617,0.1617,0,0.0664,0.0691,0.0768,0.0776,0.0841,0.0907,0.1,0.108,0.121,0.1283,0.1391,0.1456,0.156,0.1605,0.1612,0.1586,0.1639,0.1531,0.1503,0.1568,0.1563,0.1541,0.1532,0.1618,0.1618,0.1618,0.1617,0,0.0606,0.0657,0.0698,0.0787,0.0822,0.0874,0.1016,0.1083,0.1212,0.132,0.1386,0.1512,0.1578,0.1628,0.1682,0.1609,0.1598,0.1567,0.1659,0.1632,0.1445,0.144,0.1459,0.1456,0.1454,0.1452,0.145,0,0.0576,0.0583,0.0678,0.071,0.076,0.0857,0.0924,0.1078,0.1153,0.1316,0.1363,0.1489,0.1553,0.1545,0.1601,0.1594,0.1566,0.1537,0.1477,0.1461,0.1431,0.143,0.1428,0.1446,0.1446,0.1445,0.1444,0,0.0501,0.0545,0.0588,0.0644,0.0718,0.0779,0.0899,0.0964,0.1136,0.1251,0.1327,0.1371,0.1443,0.1487,0.1518,0.1493,0.1546,0.1511,0.1515,0.1458,0.1445,0.1418,0.1419,0.1436,0.1437,0.1438,0.1438,0,0.045,0.0472,0.0526,0.0581,0.0647,0.0688,0.077,0.088,0.0977,0.1189,0.1201,0.1315,0.1434,0.1433,0.1439,0.1443,0.1402,0.1324,0.1336,0.1346,0.1297,0.1263,0.1187,0,0,0,0,0,0.0391,0.0419,0.0453,0.0512,0.0565,0.0599,0.0736,0.0831,0.1018,0.1045,0.1133,0.1195,0.1239,0.129,0.127,0.1363,0.1393,0.1327,0.1305,0.1389,0.1399,0.1351,0,0,0,0,0,0,0.0362,0.0395,0.0429,0.0422,0.0449,0.0494,0.0584,0.0705,0.0752,0.0939,0.0985,0.1087,0.1164,0.1236,0.1233,0.1248,0.12,0.1404,0.14,0.1384,0.1393,0.14,0.1355,0,0,0,0,0]},{"header":{"parameterUnit":"m.s-1","parameterCategory":2,"la1":30.2991,"la2":30.254,"lo1":-89.0895,"lo2":-89.0444,"dy":0.0017,"dx":0.0017,"nx":28,"ny":28,"refTime":"2023-08-15T09:00:00:Z","depth":"4","parameterNumber":3,"parameterNumberName":"V-component_of_CURRENTS"},"data":[0,0,0,0,0,0,0,0,0,0,0,0,0,0,0,0,0,0,0,0,0,0,0,0,0,0,0,0,0,0,0,0,0,0,0,0,0,0,0,0,0,0,0,0,0,0,0,0,0,0,0,0,0,0,0,0,0,0,-0.005,-0.005,0,-0.002,-0.002,-0.002,-0.0024,-0.0024,-0.0025,-0.0025,0.0085,0.0088,0.0091,0,0,0,0,0,0,0,0,0,0,0,0,0,-0.0053,-0.0053,-0.005,-0.005,-0.0049,-0.002,-0.002,-0.0019,-0.0023,-0.0024,-0.0025,-0.0026,0.0083,0.0088,0.0092,0,0,0,0,0,0,0,0,0,0,0,0,0,-0.0039,-0.0053,-0.005,-0.0049,-0.0049,-0.0021,-0.002,-0.0019,-0.0023,-0.0024,-0.0025,-0.0026,0.0082,0.0087,0.0092,0.0143,0,0,0.0108,0.0111,0,0,0,0,0,0,0,0,-0.004,-0.0039,-0.0049,-0.0049,-0.0049,-0.0028,0.0019,0.0039,-0.0023,-0.0031,-0.0025,-0.0026,0.0054,0.0062,0.007,0.0148,0.0153,0.0109,0.0112,0.0114,0.0116,0,0,0,0,0,0,0,-0.0041,-0.004,-0.0037,-0.0049,-0.0049,-0.0031,-0.003,0.0023,0.0019,-0.0031,-0.0031,-0.003,0.0055,0.0065,0.0073,0.0155,0.0109,0.0113,0.0117,0.0119,0.0197,0.0196,0,0,0,0,0,0,-0.005,-0.0041,-0.0038,-0.0036,-0.0048,-0.003,-0.003,-0.0032,0.0017,0.0022,-0.0029,-0.003,0.0057,0.0067,0.0077,0.0104,0.0114,0.0119,0.0122,0.0198,0.0197,0.0196,0,0,0,0,0,0,-0.005,-0.005,-0.0039,-0.0039,-0.0036,-0.003,-0.0033,-0.0031,-0.0025,0.0016,0.0024,-0.0026,0.0056,0.007,0.0121,0.011,0.0122,0.0126,0.02,0.0198,0.0196,0.0183,0,0,0,0,0,0,-0.005,-0.005,-0.0051,-0.004,-0.0037,-0.0024,-0.0032,-0.003,-0.0024,-0.0025,0.0023,0.0032,0.0056,0.0113,0.0126,0.0118,0.013,0.0201,0.0199,0.0197,0.0185,0.0181,0.0178,0,0,0,0,0,-0.005,-0.0056,-0.0052,-0.0051,-0.004,-0.0023,-0.002,-0.0017,-0.0023,-0.0016,0.0014,0.003,0.0107,0.0118,0.0133,0.0126,0.0202,0.0199,0.0197,0.0187,0.0182,0.0178,0,0,0,0,0,0,-0.0066,-0.0056,-0.0052,-0.0056,-0.0039,-0.0025,-0.0021,-0.0016,0.0012,0.0009,0.0047,0.0059,0.0087,0.0111,0.0121,0.0135,0.0146,0.0146,0.0132,0.0128,0.0125,0.0143,0.0135,0,0,0,0,0,-0.0067,-0.0065,-0.005,-0.0052,-0.0044,-0.003,-0.0022,-0.0021,0.0002,0.0011,0.0054,0.0078,0.009,0.0114,0.0138,0.0177,0.0166,0.0168,0.0165,0.0162,0.0183,0.0119,0.0112,0.0188,0.0188,0.0188,0,0,-0.0073,-0.0068,-0.0067,-0.0053,-0.0042,-0.0008,-0.0028,-0.0021,0.0008,0.0024,0.0084,0.0079,0.0095,0.0119,0.0132,0.0142,0.0136,0.0159,0.0157,0.018,0.0116,0.0108,0.0102,0.0186,0.0187,0.0187,0,0,-0.0057,-0.0079,-0.005,-0.0037,-0.002,-0.001,-0.0007,0.0019,0.0026,0.0074,0.0069,0.0062,0.0125,0.0116,0.012,0.0116,0.0115,0.0111,0.0126,0.0063,0.0056,0.005,0.0037,0.0031,0.0116,0.0116,0.0116,0,-0.0059,-0.0021,-0.0041,-0.0004,0.0017,-0.0005,0.0043,0.0046,0.0089,0.0097,0.009,0.0112,0.0118,0.0119,0.0105,0.011,0.0092,0.0144,0.0059,0.0053,0.0047,0.0035,0.0028,0.0115,0.0115,0.0115,0.0115,0,0.0002,0.0026,0.0037,0.0085,0.0096,0.012,0.0127,0.0138,0.0138,0.0142,0.0141,0.013,0.014,0.0115,0.0118,0.0077,0.0084,0.0055,0.0072,0.0039,0.0028,0.0021,0.0113,0.0114,0.0114,0.0114,0,0,0.0045,0.0078,0.0091,0.0124,0.0145,0.0163,0.0188,0.0211,0.0216,0.0214,0.0225,0.0198,0.0165,0.0164,0.0137,0.0081,0.0013,0.0059,0.0056,0.0054,-0.0092,-0.0091,-0.0099,-0.0037,-0.0038,-0.004,-0.0078,0,0.012,0.0194,0.0197,0.0272,0.0313,0.0288,0.0319,0.0315,0.0294,0.0292,0.0228,0.0227,0.0191,0.0178,0.0112,0.0038,-0.0008,0.003,-0.0064,-0.0065,-0.0056,-0.0109,-0.0045,-0.0084,-0.0086,-0.0087,-0.0088,0,0.0217,0.0251,0.0332,0.0366,0.0383,0.0421,0.0432,0.0453,0.0409,0.0387,0.034,0.0291,0.023,0.0182,0.0053,0.0079,0.0005,-0.0062,-0.0066,-0.006,-0.008,-0.0048,-0.0101,-0.01,-0.0099,-0.0098,-0.0098,0,0.028,0.0353,0.0416,0.0432,0.0464,0.0495,0.0515,0.0489,0.0496,0.0446,0.0424,0.0339,0.0297,0.018,0.0049,0.0046,-0.0106,-0.0131,-0.0191,-0.0189,-0.0168,-0.0162,-0.0228,-0.0228,-0.0228,-0.0228,-0.0228,0,0.0358,0.0415,0.0454,0.0484,0.0558,0.0562,0.061,0.0598,0.0577,0.0569,0.0485,0.0444,0.0285,0.0177,0.0061,-0.008,-0.0096,-0.0184,-0.0212,-0.0171,-0.0165,-0.0173,-0.0166,-0.0229,-0.0229,-0.0229,-0.0229,0,0.0404,0.0435,0.0507,0.0559,0.0589,0.0636,0.0685,0.0698,0.0676,0.0656,0.0646,0.0523,0.0376,0.0224,0.0028,-0.0055,-0.0196,-0.024,-0.0148,-0.017,-0.023,-0.0224,-0.0302,-0.0303,-0.0303,-0.0304,-0.0304,0,0.0426,0.0472,0.0552,0.0596,0.0628,0.0699,0.0742,0.0753,0.0752,0.0694,0.0678,0.0548,0.0445,0.019,0.0025,-0.0178,-0.0215,-0.0258,-0.0277,-0.0225,-0.0244,-0.0237,-0.0229,-0.0305,-0.0305,-0.0305,-0.0305,0,0.0461,0.0493,0.0534,0.0618,0.0687,0.0748,0.0804,0.0816,0.0805,0.0795,0.0688,0.0549,0.0383,0.018,0.0025,-0.0126,-0.022,-0.0264,-0.0264,-0.0283,-0.023,-0.0246,-0.0238,-0.0307,-0.0307,-0.0307,-0.0307,0,0.0475,0.0506,0.0557,0.0629,0.0708,0.0757,0.0796,0.0796,0.0802,0.0743,0.0708,0.053,0.0433,0.0207,0.0058,-0.0087,-0.0128,-0.0163,-0.0169,-0.0169,-0.013,-0.0043,-0.0088,0,0,0,0,0,0.0481,0.0509,0.0565,0.0628,0.0696,0.0739,0.0808,0.0831,0.0837,0.0768,0.0737,0.0579,0.034,0.0233,0.0085,0.0043,-0.0151,-0.0132,-0.0194,-0.0317,-0.0315,-0.0294,0,0,0,0,0,0,0.0486,0.0533,0.055,0.0602,0.0644,0.071,0.0758,0.0769,0.0728,0.0718,0.0588,0.0545,0.0309,0.0409,0.0076,0.0034,-0.0022,-0.0238,-0.0241,-0.0318,-0.0316,-0.0314,-0.0292,0,0,0,0,0]}]]